Regional Weather Roundup
Issued by NWS Goodland, KS

Home | Current Version | Previous Version | Graphics & Text | Print | Product List | Glossary On
Versions: 1 2 3 4 5 6 7 8 9 10 11 12 13 14 15 16 17 18 19 20 21 22 23 24 25 26 27 28 29 30 31 32 33 34 35 36 37 38 39 40 41 42 43 44 45 46 47 48 49 50
000
ASUS43 KGLD 292159
RWRGLD

GOODLAND FORECAST AREA HOURLY WEATHER ROUNDUP
NATIONAL WEATHER SERVICE GOODLAND KS
400 PM MDT WED JUL 29 2015

...OFFICIAL OBSERVATIONS...

CITY           SKY/WX    TMP DP  RH WIND       PRES   REMARKS
GOODLAND KS    SUNNY     80  40  23 SE13G21   30.26F
HILL CITY KS   SUNNY     85  51  31 E10       30.22F
IMPERIAL NEB   SUNNY     84  48  28 S16G22    30.24F
MCCOOK NEB     SUNNY     85  51  31 E8        30.22F
AKRON CO       SUNNY     81  46  29 S14G24    30.28F
BURLINGTON CO  SUNNY     80  42  25 S14       30.29F
LIMON CO       SUNNY     78  46  32 SE20G26   30.32F
$$

...UNOFFICIAL OBSERVATIONS...

CITY           SKY/WX    TMP DP  RH WIND       PRES   REMARKS
COLBY KS       SUNNY     82  52  34 E10       30.26F
NORTON KS      SUNNY     82  48  30 CALM      30.21
SHARON SPRINGS   N/A     81  52  36 SE5G12      N/A
KIT CARSON CO    N/A     80  47  31 MISG        N/A
YUMA CO          N/A     81  44  26 SW14        N/A
$$


USA.gov is the U.S. government's official web portal to all federal, state and local government web resources and services.